Location: Bouchavesnes-Bergen
(49.9859°N, 2.9203°E)
Time: 10:47:27
(UTC+00:00)

H-2A R/B - Pass Details

Date: 09 March 2021
Orbit: 577 x 654 km, 98.5° (Epoch: 12 April)

Event Time Altitude Azimuth Distance (km) Brightness Sun altitude
Rises 03:36:58 0° 140° (SE) 2,850 5.6 -25.5°
Reaches altitude 10° 03:39:17 10° 131° (SE) 1,939 4.9 -25.2°
Maximum altitude 03:43:05 34° 66° (ENE) 978 3.6 -24.7°
Drops below altitude 10° 03:46:51 10° 1° (N) 1,920 4.9 -24.1°
Sets 03:49:07 0° 353° (N) 2,818 5.6 -23.8°
